Wind_Speed
93 103 119 127 125 120 107 102 84 82 72 73 70 70 66 59 61 65 58 55 49 45 48 43 48 41 43 37 32 32 30 27 26 23 20 20 21 23
82 91 107 123 131 130 119 109 91 83 77 73 73 68 67 66 68 69 64 59 63 58 57 51 49 49 41 38 41 34 35 27 23 23 22 24 22 27
78 82 94 111 134 133 122 114 98 87 85 82 78 74 74 76 80 75 71 71 65 65 62 59 50 54 48 45 49 46 40 32 34 32 27 28 24 27
65 72 82 98 122 136 126 118 102 97 90 88 82 73 75 85 83 83 76 74 69 71 71 66 64 58 56 53 53 48 47 44 47 44 33 30 25 25
57 64 75 86 94 130 129 124 113 100 99 90 82 87 81 86 83 81 77 78 72 70 63 61 63 63 64 61 57 60 58 60 57 45 43 42 36 35
45 54 66 76 82 99 130 125 116 106 102 105 97 94 87 86 88 85 87 83 82 78 74 67 65 65 63 66 65 62 60 63 63 60 49 48 50 50
35 45 55 63 72 82 103 125 125 114 109 109 104 100 98 89 90 88 90 89 89 76 80 74 73 73 67 66 66 66 61 62 61 60 60 58 57 60
22 32 44 54 63 76 93 109 115 116 111 111 109 106 101 100 98 91 92 96 97 92 83 85 84 83 78 73 70 69 62 66 65 66 64 65 67 57
13 20 31 44 57 71 87 106 112 117 115 114 112 112 110 105 104 107 103 102 104 103 102 93 93 94 91 82 78 75 72 72 68 70 72 71 63 60
15 17 19 31 50 64 77 97 113 119 122 119 117 117 119 116 113 112 112 108 110 102 99 96 96 97 96 95 90 87 82 81 83 80 75 75 72 68
20 21 24 29 38 56 70 83 106 115 121 126 124 122 123 124 123 119 117 116 114 117 113 113 109 105 105 101 93 92 92 94 96 97 93 88 85 85
24 27 28 31 37 44 57 75 88 105 117 124 129 130 130 125 124 126 124 124 123 124 122 122 123 119 116 116 115 114 114 111 111 104 103 95 97 98
33 34 33 35 39 41 50 60 78 90 104 121 128 134 137 138 136 133 131 131 130 131 131 130 130 130 130 127 122 121 120 120 120 120 117 114 110 102
41 43 45 45 44 47 52 57 65 76 88 99 116 132 139 141 143 142 140 141 140 140 140 139 139 139 138 137 136 136 133 133 130 124 118 115 113 108
52 52 52 55 56 56 56 57 64 68 73 84 93 104 120 133 141 147 149 151 151 152 153 152 150 149 150 149 146 145 144 142 137 131 126 125 117 109
65 65 65 65 67 68 68 68 68 68 71 74 81 88 94 101 110 119 128 136 142 147 153 155 154 152 153 152 153 151 150 149 145 136 136 131 129 121
77 78 78 77 77 77 77 77 76 75 76 78 80 83 86 90 97 102 107 112 117 121 125 129 131 134 138 140 138 135 135 134 131 129 128 130 126 120
77 77 79 79 82 81 81 81 83 84 84 83 82 82 84 87 89 91 96 100 104 105 107 108 109 109 112 115 117 118 118 124 122 122 123 123 121 119
76 76 78 78 79 79 77 74 74 78 81 85 87 89 89 88 88 88 89 90 93 94 94 94 97 98 97 98 102 104 106 110 110 110 112 115 121 119
73 74 76 77 76 74 72 68 69 70 73 75 79 83 87 90 92 93 92 91 89 89 90 89 89 91 92 93 94 96 97 100 102 103 104 107 113 115
71 73 75 76 75 73 70 68 68 68 70 71 73 77 81 84 87 90 94 95 95 94 91 91 88 88 87 88 89 91 93 95 97 98 100 103 106 113
71 72 73 72 71 69 69 69 69 69 68 68 69 71 73 77 82 85 87 92 95 97 97 96 93 91 90 89 88 89 90 90 94 95 97 101 104 108
70 70 70 69 68 67 67 67 67 67 67 68 69 70 71 72 75 80 83 84 88 92 95 98 98 99 98 95 94 94 92 92 92 93 96 98 101 102
Wind_Direction
228 226 224 222 223 223 223 221 223 222 222 223 228 233 233 234 245 249 249 248 243 241 249 248 259 259 258 250 255 270 266 278 279 275 277 285 274 256
232 230 225 223 220 223 224 220 222 219 218 225 220 222 227 235 238 243 241 243 240 236 241 249 260 256 252 251 264 264 255 263 271 275 279 271 270 259
237 231 231 223 220 222 224 223 223 216 216 220 220 224 231 236 242 244 240 245 246 241 243 246 251 253 248 250 254 256 251 248 267 276 262 274 265 267
239 235 229 224 222 221 221 222 222 218 216 218 223 225 232 238 242 242 244 246 247 245 249 249 252 252 248 249 253 252 247 247 270 272 259 264 268 273
239 235 231 229 227 221 219 222 223 220 217 218 221 223 225 233 237 235 240 243 245 245 247 250 251 247 251 251 254 256 253 261 266 260 257 257 253 275
240 237 234 229 227 220 220 223 224 222 216 217 216 223 223 228 232 234 236 239 244 245 243 248 250 249 253 251 255 256 256 261 258 263 254 258 270 267
242 238 235 233 224 223 223 223 224 222 217 220 219 221 223 226 232 234 234 236 239 240 240 246 249 251 254 251 251 248 251 251 257 258 260 257 265 271
246 242 238 233 225 223 222 218 214 216 216 219 218 221 225 224 229 232 236 236 238 239 242 237 241 248 250 249 244 246 255 256 257 261 263 262 269 258
271 250 236 232 226 222 221 215 213 213 216 217 219 222 224 226 226 232 234 236 236 239 241 241 246 249 248 246 246 248 248 255 259 256 259 265 263 259
264 264 246 233 226 222 221 221 218 217 217 219 222 226 227 228 231 232 236 237 238 238 238 242 244 247 247 251 249 247 248 256 255 255 260 263 263 262
263 263 256 235 229 227 226 226 223 223 221 223 224 227 230 231 232 235 236 238 240 240 241 243 246 249 249 248 243 246 249 254 258 262 261 262 263 265
265 259 259 258 243 237 233 231 232 229 228 227 228 229 230 232 232 233 236 238 240 240 242 244 245 246 247 248 249 252 254 256 259 261 261 265 267 267
275 271 265 257 251 248 240 237 236 235 234 233 232 232 233 234 235 235 236 238 240 241 242 244 245 247 248 249 249 251 253 256 260 263 262 262 264 266
266 268 271 269 261 252 246 242 239 239 239 239 238 237 237 238 240 240 240 241 242 243 244 245 246 247 248 249 251 253 255 258 261 263 263 262 261 261
262 262 262 265 267 266 263 254 247 241 240 239 241 241 242 243 244 244 245 246 247 248 249 250 250 250 251 253 254 257 259 259 260 260 260 261 260 259
268 267 263 259 258 257 258 258 258 254 250 246 242 241 242 243 244 244 245 247 249 251 252 252 254 255 255 257 257 257 258 258 258 257 256 257 259 261
269 268 266 264 262 261 260 259 258 257 257 254 251 247 245 244 244 245 246 247 248 249 251 252 253 253 254 255 255 255 255 254 254 255 253 255 256 257
273 272 271 269 267 267 266 265 264 262 259 258 257 255 253 250 249 248 248 248 249 250 251 251 252 252 252 252 253 253 251 254 254 253 253 254 254 253
278 279 278 277 275 274 272 270 267 264 263 261 260 258 257 257 256 253 250 251 250 250 252 253 254 253 252 251 251 251 251 252 252 250 250 249 250 250
279 280 280 280 279 279 279 277 273 268 264 262 259 258 258 258 257 258 258 257 255 253 252 251 251 251 253 253 253 251 250 250 250 250 248 248 248 248
281 280 281 281 282 283 283 279 275 272 269 266 263 260 259 258 257 256 256 256 256 257 256 256 254 252 251 252 252 253 252 251 250 249 249 248 247 247
284 283 283 284 284 284 282 280 278 276 275 271 266 262 261 259 259 259 257 257 257 257 258 257 257 257 256 254 252 252 252 252 252 251 251 250 249 248
285 285 286 286 286 284 283 283 281 278 276 274 272 269 267 263 259 259 260 259 258 257 256 257 257 257 258 257 256 257 256 254 253 254 254 253 253 252
Height
10397 10404 10418 10432 10448 10463 10478 10496 10510 10526 10543 10547 10560 10567 10572 10576 10581 10581 10587 10591 10593 10596 10597 10596 10597 10598 10600 10602 10604 10605 10606 10607 10608 10607 10607 10608 10608 10610
10375 10384 10393 10406 10423 10441 10460 10476 10488 10507 10524 10530 10542 10547 10553 10559 10561 10564 10569 10572 10575 10580 10583 10585 10587 10587 10589 10592 10593 10595 10597 10598 10600 10601 10601 10601 10603 10603
10349 10361 10367 10381 10400 10417 10441 10458 10474 10485 10506 10512 10522 10527 10535 10541 10543 10547 10551 10555 10563 10565 10569 10572 10574 10575 10576 10581 10582 10584 10587 10588 10590 10594 10594 10595 10594 10595
10329 10338 10347 10361 10378 10398 10412 10432 10450 10463 10484 10493 10503 10511 10518 10520 10524 10529 10533 10537 10545 10549 10552 10556 10559 10562 10563 10567 10570 10571 10575 10577 10579 10584 10585 10588 10587 10587
10314 10321 10330 10342 10355 10375 10395 10412 10426 10445 10458 10478 10487 10487 10494 10497 10502 10509 10513 10519 10525 10530 10533 10539 10542 10545 10546 10550 10555 10558 10562 10564 10567 10570 10573 10575 10576 10577
10303 10308 10316 10327 10340 10354 10375 10391 10410 10426 10438 10448 10452 10464 10471 10475 10481 10487 10496 10504 10506 10512 10518 10522 10526 10529 10531 10533 10538 10543 10545 10549 10552 10556 10560 10562 10563 10565
10296 10299 10304 10313 10325 10338 10357 10373 10390 10406 10416 10426 10435 10442 10449 10455 10460 10470 10477 10481 10484 10492 10501 10503 10507 10511 10514 10514 10520 10523 10526 10531 10534 10539 10544 10546 10550 10551
10292 10294 10298 10305 10315 10326 10337 10353 10366 10382 10393 10404 10413 10423 10430 10437 10444 10450 10456 10459 10466 10476 10480 10484 10488 10492 10494 10498 10501 10505 10508 10512 10516 10519 10525 10528 10532 10533
10288 10290 10292 10298 10306 10316 10325 10338 10348 10359 10372 10383 10390 10401 10407 10415 10422 10426 10432 10437 10442 10452 10457 10462 10467 10471 10477 10481 10484 10485 10489 10492 10497 10501 10505 10508 10511 10515
10286 10286 10288 10291 10296 10304 10313 10323 10334 10340 10351 10361 10371 10379 10384 10392 10397 10402 10406 10411 10420 10429 10435 10438 10443 10449 10453 10459 10463 10465 10469 10474 10477 10483 10488 10490 10492 10494
10283 10282 10283 10285 10288 10292 10299 10305 10314 10323 10331 10338 10347 10357 10362 10369 10375 10379 10384 10388 10395 10403 10410 10412 10417 10422 10428 10434 10438 10443 10448 10454 10458 10458 10464 10468 10472 10474
10276 10277 10277 10277 10279 10282 10285 10290 10296 10304 10309 10317 10323 10330 10337 10342 10348 10352 10356 10360 10366 10372 10379 10381 10386 10392 10396 10404 10411 10417 10421 10428 10433 10439 10441 10440 10443 10449
10265 10266 10266 10267 10268 10268 10270 10272 10277 10281 10287 10294 10300 10306 10310 10315 10322 10327 10331 10335 10338 10342 10346 10352 10354 10360 10366 10373 10380 10386 10392 10397 10406 10411 10415 10419 10423 10421
10255 10254 10252 10251 10252 10252 10253 10254 10256 10259 10263 10268 10273 10279 10283 10287 10293 10299 10304 10308 10310 10314 10316 10318 10323 10327 10332 10341 10349 10353 10361 10367 10373 10384 10383 10384 10395 10400
10241 10240 10239 10238 10236 10235 10234 10234 10235 10237 10239 10242 10244 10247 10251 10256 10261 10266 10270 10273 10277 10281 10283 10287 10292 10296 10300 10307 10314 10321 10324 10335 10341 10353 10351 10351 10362 10370
10220 10219 10219 10218 10217 10216 10215 10215 10214 10213 10213 10215 10217 10219 10220 10222 10225 10228 10232 10237 10241 10244 10247 10251 10256 10260 10262 10268 10276 10285 10291 10296 10304 10317 10320 10324 10329 10339
10193 10191 10190 10190 10190 10190 10190 10189 10189 10190 10189 10190 10190 10191 10192 10194 10197 10198 10201 10203 10206 10209 10212 10216 10220 10224 10228 10231 10237 10245 10248 10257 10265 10274 10284 10289 10298 10305
10168 10166 10165 10164 10163 10162 10161 10161 10160 10162 10162 10162 10162 10163 10164 10165 10167 10170 10172 10175 10177 10179 10181 10184 10186 10190 10193 10196 10202 10208 10215 10216 10228 10237 10245 10253 10261 10268
10144 10142 10139 10136 10133 10130 10130 10131 10132 10131 10130 10130 10131 10132 10133 10134 10137 10138 10140 10142 10146 10149 10150 10152 10154 10157 10161 10166 10169 10175 10181 10185 10192 10201 10210 10218 10225 10234
10121 10117 10112 10108 10104 10102 10101 10101 10100 10099 10098 10098 10098 10099 10100 10102 10104 10105 10107 10108 10111 10114 10116 10120 10123 10126 10129 10135 10139 10144 10151 10154 10161 10168 10176 10183 10194 10203
10099 10094 10089 10084 10080 10077 10074 10071 10069 10069 10068 10067 10068 10068 10068 10068 10069 10071 10071 10073 10075 10078 10081 10085 10090 10095 10099 10104 10109 10113 10120 10125 10131 10138 10145 10152 10160 10167
10076 10070 10066 10061 10057 10053 10049 10046 10044 10041 10039 10038 10037 10037 10037 10037 10037 10038 10040 10041 10043 10046 10049 10053 10057 10062 10067 10072 10079 10084 10088 10095 10100 10107 10113 10121 10128 10135
10053 10048 10044 10039 10035 10030 10026 10022 10018 10015 10013 10010 10009 10008 10007 10007 10008 10007 10007 10009 10011 10013 10016 10018 10023 10028 10033 10039 10045 10048 10055 10061 10069 10074 10081 10088 10095 10103